Location: Unspecified
(51.0000°N, 12.0000°E)
Time: 23:55:57
(UTC+02:00)

OTV 5 (USA 277) - Visible Passes

Search period start: 22 April 2018 00:00
Search period end: 02 May 2018 00:00
Orbit: 310 x 323 km, 54.5° (Epoch: 21 April)

Date Brightness Start Highest point End Pass type
(mag) Time Alt. Az. Time Alt. Az. Time Alt. Az.
22 Apr ? 21:06:58 10° WSW 21:09:42 89° N 21:12:25 10° ENE visible
22 Apr ? 22:41:38 10° WNW 22:44:13 37° N 22:44:46 32° NNE visible
23 Apr ? 21:21:29 10° W 21:24:10 53° NNW 21:26:51 10° ENE visible
23 Apr ? 22:56:12 10° WNW 22:58:47 37° N 22:58:47 37° N visible
24 Apr ? 21:36:06 10° W 21:38:42 40° N 21:41:18 10° ENE visible
24 Apr ? 23:10:42 10° WNW 23:12:42 36° NNW 23:12:42 36° NNW visible
25 Apr ? 21:50:43 10° WNW 21:53:17 36° N 21:55:41 11° ENE visible
25 Apr ? 23:25:09 10° WNW 23:26:33 26° WNW 23:26:33 26° WNW visible
26 Apr ? 22:05:15 10° WNW 22:07:51 39° N 22:09:30 18° ENE visible
26 Apr ? 23:39:36 10° WNW 23:40:22 17° WNW 23:40:22 17° WNW visible
27 Apr ? 22:19:43 10° WNW 22:22:24 53° NNE 22:23:18 33° ENE visible
28 Apr ? 22:34:09 10° WNW 22:36:52 88° N 22:37:05 74° ESE visible
29 Apr ? 21:14:17 10° WNW 21:16:56 44° NNE 21:19:33 10° E visible
29 Apr ? 22:48:38 10° WNW 22:50:53 42° WSW 22:50:53 42° WSW visible
30 Apr ? 21:28:43 10° WNW 21:31:26 67° NNE 21:33:49 13° ESE visible
30 Apr ? 23:03:20 10° W 23:04:41 19° WSW 23:04:41 19° WSW visible
01 May ? 21:43:10 10° WNW 21:45:53 67° SSW 21:47:39 19° SE visible
